Vorticity
11 11 11 11 11 11 11 11 11 11 11 11 11 11 11 10 11 11 11 11 12 12 12 12 12 11 10 10 9 8 8 8 7 7 7 7 7 7 7 7 7 7 8 8 9 10 11 13 13 12 10 8 8 10 13 14 12 6 1 -2 0 2 3 5 4 4 3 3 3
10 10 10 11 11 11 11 11 11 11 11 11 11 11 11 11 11 11 11 12 12 11 11 10 10 9 8 8 7 7 6 6 6 6 6 6 6 6 7 7 8 8 8 8 9 10 12 14 12 12 12 12 11 12 13 14 12 9 4 2 3 4 4 4 4 3 3 3 5
9 10 10 10 10 10 11 11 11 11 11 11 11 10 10 10 10 10 10 10 10 10 9 9 8 7 7 6 6 6 5 5 5 5 6 6 7 7 8 9 9 10 11 12 12 10 8 5 5 7 10 11 11 11 11 11 10 9 7 6 5 4 4 3 3 2 3 4 5
8 8 9 9 9 9 9 10 10 10 9 9 9 9 9 10 10 10 9 9 9 8 8 7 6 6 5 5 5 5 5 5 5 6 6 7 7 8 9 10 11 11 12 12 11 10 8 7 9 10 11 10 10 10 9 8 8 7 7 5 4 4 3 3 3 3 4 6 6
7 7 7 7 8 8 8 8 8 8 8 7 7 8 8 8 8 8 8 8 7 6 5 5 5 4 4 4 4 5 5 5 6 6 7 8 8 9 10 11 12 12 12 12 12 12 12 11 10 10 10 10 9 9 8 7 7 6 5 4 3 3 2 2 4 6 8 10 7
6 6 6 6 7 7 7 7 6 6 6 6 6 6 6 6 6 6 6 6 6 5 5 4 4 4 4 4 5 5 6 6 7 7 8 8 9 10 10 11 11 11 11 12 12 12 12 12 11 11 11 10 8 7 6 6 5 5 4 3 3 3 3 5 6 7 7 5 3
6 6 6 6 6 6 6 6 5 5 5 4 4 4 4 5 5 5 5 5 5 5 4 4 4 4 4 5 5 6 6 7 8 9 9 9 10 10 10 10 10 10 10 11 13 12 11 9 10 10 9 8 6 4 4 3 4 3 3 4 4 5 5 7 6 5 5 6 8
6 6 6 6 6 6 6 5 5 4 4 4 4 4 4 4 5 5 5 5 5 5 5 5 5 5 5 5 6 7 7 8 8 9 10 10 10 10 10 10 9 10 10 11 10 8 7 8 8 7 6 5 4 3 3 3 3 3 4 4 6 6 5 5 6 7 8 10 11
8 8 8 8 8 8 8 7 6 6 5 5 4 4 4 5 5 5 5 5 5 5 5 5 5 5 6 6 7 7 8 9 9 9 10 10 10 9 9 9 9 9 9 10 9 8 7 6 5 4 4 3 3 3 3 3 3 4 4 5 6 6 6 6 7 9 10 11 12
10 10 10 11 10 10 10 10 9 8 8 7 6 6 6 6 6 6 6 6 6 6 6 6 6 7 7 8 8 9 9 9 10 9 9 9 9 9 8 8 8 7 7 7 6 6 5 5 4 4 4 4 4 4 4 4 4 5 5 5 6 6 7 8 9 10 11 12 12
11 11 11 11 11 11 11 11 10 10 9 9 8 8 7 7 7 7 7 7 7 7 8 8 8 9 9 9 10 10 10 10 10 9 9 9 9 9 8 8 7 7 6 6 5 5 5 5 5 5 5 5 5 5 5 5 5 6 6 6 7 8 9 10 11 12 12 13 13
11 11 11 11 11 11 11 11 11 10 10 10 9 9 9 9 9 9 9 9 10 10 10 10 11 11 11 11 11 11 11 11 10 10 10 9 9 9 8 8 7 7 6 6 6 6 6 6 6 6 6 6 6 6 5 6 6 6 7 8 8 9 11 12 13 13 13 13 12
11 11 11 11 11 11 11 11 11 11 11 11 11 11 11 11 11 11 12 12 12 13 13 13 13 13 13 13 12 12 12 11 11 11 10 10 10 9 9 9 8 8 7 7 7 7 7 7 7 6 6 6 6 6 6 6 7 8 9 10 11 12 13 14 14 13 13 12 11
11 11 11 12 12 12 12 13 13 13 13 13 13 13 13 14 14 14 14 14 14 15 15 15 15 14 14 14 13 13 13 12 12 12 11 11 11 10 10 9 9 9 8 8 8 8 8 7 7 7 6 6 7 7 7 8 9 10 11 12 13 13 14 14 13 13 12 11 11
11 11 12 12 12 13 13 14 14 14 14 15 15 15 15 15 16 15 15 15 16 16 15 15 15 15 15 14 14 14 13 13 13 13 12 12 12 11 11 10 10 10 9 9 9 9 8 8 8 7 8 8 9 10 10 11 12 13 13 14 14 14 14 13 12 12 11 11 11
11 11 12 12 13 13 14 14 15 15 15 16 16 16 16 16 16 16 16 16 15 15 15 15 14 14 14 14 14 13 13 13 13 13 13 13 12 12 12 11 11 11 10 10 10 10 9 9 9 10 10 11 12 13 13 14 14 14 14 14 14 13 13 12 12 11 11 11 12
10 11 11 12 13 13 14 15 15 16 16 16 16 16 16 16 15 15 14 14 14 13 13 13 13 12 12 13 13 13 13 13 13 14 13 13 13 13 13 12 12 12 12 12 12 12 12 12 12 13 13 14 14 15 15 14 14 14 14 13 13 12 12 11 11 11 11 12 13
10 10 11 12 12 13 14 15 15 15 16 16 15 15 14 14 13 12 12 11 11 11 11 11 11 11 12 12 12 13 13 14 14 14 14 14 14 14 14 13 13 13 13 13 13 14 14 14 15 15 15 15 15 15 14 14 13 13 13 13 12 11 11 10 11 11 12 13 13
9 10 11 12 12 13 14 15 15 15 15 14 13 13 12 11 10 10 9 9 10 10 10 10 11 11 12 12 13 14 14 15 15 15 15 15 15 15 15 15 15 14 14 15 15 15 15 15 15 15 15 14 14 13 13 13 13 13 12 12 11 10 10 10 11 12 12 13 12
9 10 11 12 13 13 14 14 14 14 13 12 11 10 9 8 8 8 8 8 9 9 10 10 11 12 13 13 14 15 15 16 16 16 16 16 16 16 16 16 16 16 15 15 15 15 15 15 14 14 13 12 12 12 12 12 12 12 12 11 10 10 10 10 11 11 11 11 10
9 10 11 12 13 13 14 14 13 12 11 10 9 8 7 7 7 8 8 8 9 10 11 12 13 13 14 15 15 16 16 16 16 16 16 16 16 16 15 15 15 15 15 15 14 14 13 13 12 12 11 11 11 11 12 12 12 11 10 9 9 9 9 10 10 10 9 9 9
10 10 11 12 13 13 13 13 12 11 10 9 8 7 7 7 7 8 9 9 10 11 12 14 14 15 15 15 15 15 15 15 14 14 14 14 14 14 13 13 13 13 13 13 12 12 11 11 11 10 10 11 11 12 12 12 11 10 9 9 8 8 9 9 9 9 9 10 11
10 11 11 12 13 13 13 13 12 10 9 8 7 7 7 7 8 9 10 11 12 14 15 16 16 15 15 15 14 13 13 12 12 12 12 11 11 11 11 11 11 11 11 11 10 10 10 10 10 10 11 11 11 12 12 11 10 9 8 8 8 8 8 8 9 10 12 13 15
10 11 12 12 13 14 13 13 11 10 9 8 7 7 7 8 9 11 12 14 15 16 16 16 15 14 13 12 12 11 11 10 10 10 10 10 10 10 10 10 10 10 10 10 10 10 10 10 10 11 11 12 12 12 11 10 9 8 7 7 7 8 8 10 12 14 16 18 19
11 12 13 14 14 14 14 13 12 10 9 8 8 8 9 10 11 13 14 15 16 15 14 13 12 11 10 10 10 10 10 10 10 10 11 11 11 11 11 11 11 11 11 11 11 11 11 11 11 11 12 12 12 11 10 9 8 8 7 7 9 10 13 15 18 20 20 20 18
13 13 14 15 15 15 14 13 12 10 9 8 8 9 10 12 14 15 15 15 14 13 12 10 10 9 9 9 10 10 11 11 12 12 13 13 13 13 14 14 13 13 13 13 13 12 12 13 13 13 13 13 12 11 10 8 8 8 9 10 13 16 19 21 22 21 19 16 13
15 16 16 16 16 15 14 13 12 10 9 9 10 11 12 14 14 14 14 13 11 10 9 8 8 8 8 9 9 10 11 11 12 13 14 14 15 15 15 15 15 15 14 14 14 14 14 14 14 14 14 13 12 10 9 8 9 11 14 17 20 22 23 22 19 15 12 9 7
17 17 17 17 16 15 14 12 11 10 10 10 11 12 13 14 13 12 11 9 8 7 7 7 7 7 8 8 8 9 10 10 11 11 12 13 13 14 14 14 15 15 15 14 15 15 15 15 15 14 13 12 11 10 10 11 14 18 21 24 23 21 18 14 11 9 7 7 7
18 18 18 17 16 15 13 12 11 10 10 11 12 12 12 12 11 9 8 7 6 6 6 6 6 6 6 7 7 8 9 9 10 10 10 11 11 12 12 13 13 14 14 14 15 15 15 15 14 13 12 11 11 13 15 19 22 23 23 21 17 13 10 8 7 7 7 8 9
19 18 18 17 15 14 12 11 10 10 10 11 11 11 10 9 8 7 6 5 5 5 5 5 5 6 6 7 8 9 9 10 10 10 10 10 10 11 12 12 13 13 14 14 15 15 15 14 14 13 13 14 17 20 22 24 22 19 15 11 9 8 7 7 8 9 9 10 11
19 18 17 16 14 13 11 10 10 10 10 10 10 9 8 7 6 5 5 5 5 5 5 5 6 7 8 9 10 11 11 12 11 11 11 11 11 12 12 13 14 15 15 16 16 15 15 14 15 16 18 20 22 23 21 18 14 11 9 8 8 8 9 10 10 10 11 11 11
18 17 15 14 13 11 10 9 9 9 9 9 8 7 6 6 5 5 5 5 5 6 6 7 9 10 11 12 13 14 14 14 13 13 12 12 13 14 15 16 16 17 17 17 17 17 17 17 19 21 22 22 20 17 14 10 9 9 9 9 10 10 10 10 11 11 11 11 11
16 15 13 12 11 10 9 9 9 8 8 7 6 6 5 5 5 5 5 6 7 8 9 11 12 13 14 15 16 15 15 15 15 15 15 15 16 17 18 19 19 19 19 19 19 19 20 21 22 21 19 16 13 11 9 9 9 9 9 10 10 10 10 10 10 10 10 9 9
14 12 11 10 9 9 8 8 8 7 7 6 6 5 5 6 6 6 7 8 10 12 13 15 16 17 17 17 17 17 16 16 16 17 18 19 20 21 21 21 21 21 21 21 21 21 21 20 17 15 12 10 9 9 9 9 9 9 9 8 8 8 8 8 8 8 8 8 8
11 10 9 9 8 8 7 7 7 6 6 6 6 6 6 6 7 9 10 12 14 15 17 18 18 18 18 18 18 17 18 18 19 20 21 22 22 22 23 22 22 22 21 21 19 18 15 13 11 10 9 8 8 8 8 7 7 7 6 6 6 6 6 6 6 7 7 7 7
9 8 8 8 7 7 7 7 6 6 6 6 6 7 8 9 11 13 14 16 17 18 19 19 19 18 18 18 19 20 20 21 21 22 23 23 23 23 22 21 20 19 18 16 14 12 10 9 8 8 7 7 7 6 5 5 4 4 4 4 4 5 5 6 6 6 7 7 7
8 8 7 7 7 7 7 7 7 7 7 8 8 10 11 13 15 16 18 19 19 19 19 19 19 19 20 20 21 22 22 23 22 22 22 22 22 21 19 17 16 14 12 10 9 8 7 7 6 6 5 5 4 4 3 3 3 3 4 4 5 5 6 6 7 7 7 7 8
8 8 8 7 7 8 8 8 8 9 9 10 12 13 15 17 18 19 19 20 20 20 19 19 20 21 21 21 22 22 22 22 22 21 20 19 18 16 14 12 10 9 8 6 6 6 5 5 4 4 3 3 3 3 3 3 4 4 5 6 6 7 7 8 8 8 8 8 8
8 9 9 9 9 9 10 10 10 11 12 14 16 17 18 19 20 20 20 20 20 20 20 20 21 21 21 21 21 20 20 20 19 17 15 14 12 11 9 8 7 6 5 5 4 4 3 3 2 2 3 3 3 4 4 4 5 6 7 8 8 8 9 9 9 9 9 9 9
10 10 10 11 11 11 12 12 13 15 16 18 19 19 20 20 20 19 19 20 20 20 20 20 20 20 20 20 19 18 17 15 14 13 11 9 8 7 7 6 5 4 4 3 3 2 2 2 3 3 4 4 5 5 6 6 7 7 8 9 9 8 8 9 9 9 9 9 9
12 12 13 13 13 14 14 15 17 18 19 20 20 20 20 19 19 19 19 19 19 20 20 19 19 18 18 17 16 14 12 11 10 9 7 6 6 5 5 4 3 3 3 2 2 2 3 3 4 5 5 6 6 7 7 7 8 9 9 9 9 9 8 8 9 9 9 9 9
Height
3123 3123 3123 3123 3123 3123 3123 3123 3123 3123 3123 3123 3123 3123 3123 3124 3124 3124 3124 3124 3124 3124 3124 3124 3124 3124 3124 3124 3124 3124 3124 3124 3124 3124 3125 3125 3125 3125 3125 3125 3125 3125 3125 3124 3124 3124 3124 3124 3124 3124 3124 3125 3124 3124 3124 3124 3124 3124 3123 3123 3123 3122 3122 3122 3122 3121 3121 3121 3120
3120 3120 3120 3121 3121 3121 3121 3121 3121 3121 3121 3121 3121 3122 3122 3122 3122 3122 3122 3122 3122 3122 3122 3122 3122 3122 3122 3122 3123 3123 3123 3123 3123 3123 3123 3123 3123 3123 3123 3123 3123 3123 3123 3123 3123 3123 3123 3123 3123 3123 3122 3122 3122 3122 3122 3122 3122 3122 3122 3121 3121 3121 3121 3120 3120 3119 3119 3118 3118
3118 3118 3118 3118 3118 3118 3118 3118 3118 3119 3119 3119 3119 3119 3119 3119 3120 3120 3120 3120 3120 3120 3120 3120 3120 3120 3120 3120 3120 3120 3120 3120 3120 3120 3121 3121 3121 3121 3121 3121 3121 3121 3121 3121 3121 3121 3121 3121 3121 3121 3120 3120 3120 3120 3120 3120 3120 3120 3120 3120 3119 3119 3119 3118 3118 3117 3117 3117 3116
3116 3116 3116 3116 3116 3116 3116 3116 3117 3117 3117 3117 3117 3117 3117 3118 3118 3118 3118 3118 3118 3118 3118 3118 3118 3118 3118 3118 3118 3118 3118 3118 3118 3118 3118 3118 3118 3118 3118 3118 3118 3118 3118 3119 3119 3119 3119 3119 3119 3119 3118 3118 3118 3118 3118 3118 3118 3118 3118 3118 3118 3117 3117 3116 3116 3115 3115 3114 3114
3113 3113 3114 3114 3114 3114 3114 3114 3114 3114 3115 3115 3115 3115 3115 3115 3115 3115 3115 3116 3116 3116 3115 3116 3116 3116 3116 3116 3116 3116 3116 3116 3116 3116 3116 3116 3116 3116 3116 3116 3116 3116 3116 3117 3117 3116 3116 3116 3116 3116 3117 3117 3117 3117 3116 3116 3116 3116 3116 3116 3115 3115 3114 3114 3114 3113 3113 3113 3112
3111 3111 3112 3112 3112 3112 3112 3112 3112 3112 3113 3113 3113 3113 3113 3113 3113 3113 3113 3113 3113 3113 3113 3113 3113 3113 3113 3113 3113 3113 3113 3113 3113 3113 3114 3114 3114 3114 3114 3114 3114 3114 3114 3114 3114 3114 3114 3115 3114 3114 3114 3115 3114 3114 3114 3114 3114 3114 3113 3113 3113 3113 3112 3112 3112 3112 3111 3111 3110
3109 3109 3109 3110 3110 3110 3110 3110 3110 3110 3110 3110 3110 3110 3110 3111 3111 3111 3111 3111 3111 3111 3111 3111 3111 3111 3111 3111 3111 3111 3111 3111 3111 3111 3111 3111 3112 3112 3112 3112 3112 3112 3112 3112 3112 3113 3113 3112 3113 3113 3113 3113 3113 3113 3112 3112 3112 3112 3111 3111 3111 3111 3111 3110 3110 3109 3108 3108 3107
3107 3107 3108 3108 3108 3108 3108 3108 3108 3108 3108 3108 3108 3108 3108 3108 3108 3108 3108 3108 3108 3108 3108 3108 3108 3108 3109 3109 3109 3109 3109 3109 3109 3109 3109 3109 3109 3109 3109 3110 3110 3110 3110 3110 3110 3111 3110 3110 3110 3111 3110 3110 3110 3110 3110 3109 3109 3109 3109 3109 3109 3108 3108 3108 3107 3106 3106 3105 3105
3105 3105 3105 3105 3105 3106 3106 3106 3106 3106 3106 3106 3106 3106 3106 3106 3106 3106 3106 3106 3106 3106 3106 3106 3106 3106 3106 3106 3107 3107 3107 3107 3107 3107 3107 3107 3107 3107 3107 3107 3108 3108 3108 3108 3108 3108 3108 3108 3108 3108 3108 3108 3108 3108 3107 3107 3107 3107 3107 3107 3106 3106 3106 3105 3104 3104 3103 3103 3103
3102 3103 3103 3103 3103 3103 3103 3103 3103 3103 3103 3103 3103 3103 3103 3103 3103 3103 3103 3103 3103 3103 3103 3103 3104 3104 3104 3104 3104 3104 3104 3104 3104 3104 3104 3104 3104 3105 3105 3105 3105 3105 3105 3105 3105 3106 3106 3106 3106 3106 3106 3105 3105 3105 3105 3105 3105 3105 3104 3104 3104 3104 3103 3103 3102 3102 3101 3101 3100
3100 3100 3100 3100 3100 3101 3101 3101 3101 3101 3101 3101 3101 3101 3101 3101 3101 3101 3101 3101 3101 3101 3101 3101 3101 3101 3101 3102 3102 3102 3102 3102 3102 3102 3102 3102 3102 3103 3103 3103 3103 3103 3103 3103 3103 3103 3103 3103 3103 3103 3103 3103 3103 3103 3103 3103 3103 3102 3102 3102 3102 3101 3101 3100 3100 3099 3099 3098 3098
3097 3098 3098 3098 3098 3098 3098 3098 3098 3098 3098 3098 3098 3098 3098 3098 3098 3098 3098 3098 3098 3098 3098 3099 3099 3099 3099 3099 3099 3099 3099 3099 3100 3100 3100 3100 3100 3100 3100 3100 3101 3101 3101 3101 3101 3101 3101 3101 3101 3101 3101 3101 3101 3101 3100 3100 3100 3100 3100 3099 3099 3099 3098 3098 3097 3097 3096 3096 3095
3095 3095 3095 3095 3095 3095 3095 3095 3095 3095 3095 3095 3095 3096 3096 3096 3096 3096 3096 3096 3096 3096 3096 3096 3096 3096 3096 3096 3097 3097 3097 3097 3097 3097 3098 3098 3098 3098 3098 3098 3098 3098 3098 3098 3098 3098 3099 3099 3099 3099 3099 3098 3098 3098 3098 3098 3098 3098 3097 3097 3097 3096 3096 3095 3095 3095 3094 3094 3093
3092 3092 3092 3093 3093 3093 3093 3093 3093 3093 3093 3093 3093 3093 3093 3093 3093 3093 3093 3093 3093 3093 3093 3093 3093 3094 3094 3094 3094 3094 3094 3094 3094 3095 3095 3095 3095 3095 3095 3095 3096 3096 3096 3096 3096 3096 3096 3096 3096 3096 3096 3096 3096 3096 3096 3096 3095 3095 3095 3095 3094 3094 3093 3093 3093 3093 3092 3092 3091
3090 3090 3090 3090 3090 3090 3090 3090 3090 3090 3090 3090 3090 3091 3091 3091 3091 3091 3091 3091 3091 3091 3091 3091 3091 3091 3091 3091 3092 3092 3092 3092 3092 3092 3092 3092 3093 3093 3093 3093 3093 3093 3093 3093 3093 3093 3094 3094 3094 3094 3094 3094 3094 3093 3093 3093 3093 3093 3093 3092 3092 3092 3091 3091 3091 3090 3090 3089 3089
3087 3087 3087 3088 3088 3088 3088 3088 3088 3088 3088 3088 3088 3088 3088 3088 3088 3088 3089 3089 3089 3089 3089 3089 3089 3089 3089 3089 3089 3089 3089 3089 3090 3090 3090 3090 3090 3090 3090 3090 3090 3091 3091 3091 3091 3091 3091 3092 3092 3092 3092 3092 3092 3091 3091 3091 3091 3090 3090 3090 3090 3090 3089 3089 3089 3088 3088 3088 3087
3085 3085 3085 3085 3085 3085 3085 3085 3085 3085 3086 3086 3086 3086 3086 3086 3086 3086 3087 3087 3087 3087 3087 3087 3087 3087 3087 3087 3087 3087 3087 3087 3087 3087 3087 3087 3087 3088 3088 3088 3088 3088 3088 3088 3089 3089 3089 3089 3089 3089 3089 3089 3089 3089 3089 3089 3088 3088 3088 3088 3088 3088 3088 3087 3087 3086 3086 3086 3085
3082 3083 3083 3083 3083 3083 3083 3083 3083 3083 3083 3084 3084 3084 3084 3084 3084 3084 3085 3085 3085 3085 3085 3085 3085 3085 3085 3085 3085 3085 3085 3085 3085 3085 3085 3085 3085 3085 3085 3085 3085 3086 3086 3086 3086 3086 3087 3087 3087 3087 3087 3087 3087 3087 3087 3087 3086 3086 3086 3086 3086 3086 3085 3085 3085 3084 3084 3084 3083
3080 3080 3080 3080 3080 3081 3081 3081 3081 3081 3082 3082 3082 3082 3082 3083 3083 3083 3083 3083 3083 3083 3083 3083 3083 3083 3083 3083 3083 3083 3083 3083 3083 3083 3083 3083 3083 3083 3083 3083 3083 3083 3083 3084 3084 3084 3084 3084 3084 3085 3085 3085 3085 3085 3084 3084 3084 3084 3084 3084 3084 3084 3083 3083 3083 3083 3082 3082 3082
3078 3078 3078 3078 3078 3078 3078 3079 3079 3079 3080 3080 3080 3080 3080 3081 3081 3081 3081 3081 3081 3081 3080 3080 3081 3081 3081 3081 3081 3081 3081 3081 3081 3081 3081 3081 3081 3081 3081 3081 3081 3081 3082 3082 3082 3082 3082 3082 3082 3082 3083 3083 3083 3083 3083 3083 3083 3083 3082 3082 3082 3082 3082 3081 3081 3081 3080 3080 3080
3075 3076 3076 3076 3076 3076 3076 3077 3077 3078 3078 3078 3078 3078 3078 3078 3079 3079 3079 3079 3079 3078 3078 3078 3079 3079 3079 3079 3079 3079 3079 3079 3079 3078 3079 3079 3079 3079 3079 3079 3079 3079 3079 3080 3080 3080 3080 3080 3080 3080 3080 3081 3081 3081 3081 3081 3081 3081 3081 3080 3080 3080 3080 3079 3079 3079 3079 3078 3078
3073 3073 3073 3074 3074 3074 3074 3075 3075 3076 3076 3076 3076 3076 3077 3077 3077 3077 3077 3077 3077 3077 3077 3077 3077 3077 3077 3077 3077 3077 3077 3077 3077 3077 3077 3077 3077 3077 3077 3077 3077 3078 3078 3078 3078 3078 3078 3078 3078 3078 3078 3079 3079 3079 3079 3079 3079 3079 3079 3078 3078 3078 3078 3078 3078 3077 3077 3077 3077
3071 3071 3072 3072 3072 3072 3073 3073 3074 3074 3074 3074 3074 3074 3075 3075 3075 3075 3075 3075 3074 3075 3075 3075 3075 3075 3075 3075 3075 3075 3075 3075 3075 3075 3075 3075 3075 3075 3075 3075 3075 3076 3076 3076 3076 3076 3076 3076 3077 3077 3077 3077 3077 3077 3077 3077 3077 3077 3077 3077 3077 3077 3076 3076 3076 3076 3075 3075 3075
3069 3069 3069 3069 3070 3070 3071 3071 3072 3072 3072 3073 3073 3073 3073 3073 3073 3073 3073 3073 3073 3073 3073 3073 3073 3073 3073 3073 3073 3073 3073 3073 3073 3073 3073 3073 3073 3073 3073 3073 3074 3074 3074 3074 3074 3074 3074 3075 3075 3075 3075 3075 3075 3075 3075 3075 3075 3075 3075 3075 3075 3075 3075 3075 3074 3074 3074 3074 3073
3067 3067 3067 3068 3068 3068 3069 3069 3070 3070 3070 3070 3071 3071 3071 3071 3071 3071 3071 3071 3071 3071 3071 3071 3071 3071 3071 3072 3072 3072 3072 3072 3072 3072 3072 3072 3072 3072 3072 3072 3072 3072 3072 3073 3073 3073 3073 3073 3073 3073 3073 3073 3074 3074 3074 3074 3074 3074 3074 3074 3074 3073 3073 3073 3073 3073 3073 3072 3072
3064 3065 3065 3065 3066 3066 3067 3067 3068 3068 3068 3068 3069 3069 3069 3069 3069 3069 3069 3070 3070 3070 3070 3070 3070 3070 3070 3070 3070 3070 3070 3070 3070 3070 3070 3070 3070 3070 3070 3070 3070 3071 3071 3071 3071 3071 3071 3072 3072 3072 3072 3072 3072 3073 3073 3073 3073 3073 3073 3072 3072 3072 3072 3072 3072 3072 3071 3071 3071
3062 3063 3063 3063 3064 3064 3065 3065 3066 3066 3066 3067 3067 3067 3068 3068 3068 3068 3068 3068 3068 3068 3068 3068 3068 3068 3068 3068 3068 3068 3068 3068 3068 3068 3068 3068 3068 3068 3069 3069 3069 3069 3069 3069 3069 3070 3070 3070 3070 3071 3071 3071 3071 3071 3071 3071 3071 3071 3071 3071 3071 3071 3071 3070 3070 3070 3070 3069 3069
3060 3060 3061 3061 3062 3062 3063 3063 3064 3064 3064 3065 3065 3065 3066 3066 3066 3066 3066 3067 3067 3067 3067 3067 3067 3067 3067 3067 3067 3067 3067 3067 3067 3067 3067 3067 3067 3067 3067 3067 3068 3068 3068 3068 3068 3068 3068 3069 3069 3069 3069 3070 3070 3070 3070 3070 3070 3070 3070 3070 3070 3070 3069 3069 3069 3069 3068 3068 3068
3058 3058 3058 3059 3060 3060 3061 3062 3062 3063 3063 3063 3063 3064 3064 3064 3064 3065 3065 3065 3065 3065 3065 3065 3065 3065 3065 3065 3065 3065 3065 3065 3065 3065 3065 3065 3066 3066 3066 3066 3066 3066 3066 3067 3067 3067 3067 3068 3068 3068 3068 3068 3068 3068 3069 3069 3069 3069 3069 3069 3069 3068 3068 3068 3068 3068 3068 3067 3067
3055 3056 3057 3057 3058 3059 3059 3060 3060 3061 3061 3062 3062 3062 3063 3063 3063 3063 3063 3063 3063 3063 3063 3063 3063 3063 3063 3063 3063 3063 3063 3063 3063 3064 3064 3064 3064 3064 3064 3064 3065 3065 3065 3065 3066 3066 3066 3066 3067 3067 3067 3067 3068 3068 3068 3068 3068 3068 3068 3068 3068 3068 3067 3067 3067 3067 3067 3066 3066
3053 3054 3055 3056 3056 3057 3058 3058 3058 3059 3059 3060 3060 3060 3061 3061 3061 3061 3061 3061 3062 3062 3062 3062 3062 3062 3062 3062 3062 3062 3062 3062 3062 3062 3062 3063 3063 3063 3063 3063 3063 3063 3064 3064 3064 3065 3065 3065 3066 3066 3066 3066 3067 3067 3067 3067 3067 3067 3067 3067 3067 3067 3066 3066 3066 3066 3066 3066 3066
3052 3053 3053 3054 3055 3055 3056 3057 3057 3057 3058 3058 3058 3059 3059 3059 3059 3059 3059 3060 3060 3060 3060 3060 3060 3060 3060 3060 3060 3060 3060 3060 3060 3061 3061 3061 3061 3062 3062 3062 3062 3063 3063 3063 3063 3064 3064 3064 3065 3065 3065 3066 3066 3066 3066 3066 3066 3066 3066 3066 3066 3066 3066 3066 3066 3066 3066 3065 3065
3050 3051 3052 3053 3053 3054 3054 3055 3055 3056 3056 3057 3057 3057 3057 3058 3058 3058 3058 3058 3058 3058 3058 3058 3058 3058 3058 3058 3058 3058 3058 3059 3059 3059 3059 3060 3060 3060 3061 3061 3061 3062 3062 3062 3063 3063 3063 3064 3064 3065 3065 3065 3065 3065 3065 3065 3065 3065 3065 3065 3065 3065 3065 3065 3065 3065 3065 3065 3064
3049 3050 3050 3051 3052 3053 3053 3053 3054 3054 3055 3055 3055 3055 3056 3056 3056 3056 3056 3056 3056 3056 3056 3056 3056 3056 3057 3057 3057 3057 3057 3058 3058 3058 3058 3058 3059 3059 3059 3060 3060 3061 3061 3062 3062 3063 3063 3063 3064 3064 3064 3065 3065 3065 3065 3065 3065 3065 3065 3065 3065 3065 3065 3065 3065 3064 3064 3064 3063
3048 3048 3049 3050 3050 3051 3052 3052 3052 3053 3053 3053 3053 3054 3054 3054 3054 3054 3054 3054 3054 3055 3055 3055 3055 3055 3055 3055 3056 3056 3056 3056 3057 3057 3057 3058 3058 3058 3059 3059 3060 3060 3061 3061 3062 3062 3063 3063 3063 3063 3064 3064 3064 3064 3064 3064 3064 3064 3064 3064 3064 3064 3064 3064 3064 3063 3063 3063 3062
3047 3047 3048 3048 3049 3049 3050 3050 3051 3051 3051 3052 3052 3052 3052 3053 3053 3053 3053 3053 3053 3053 3053 3053 3053 3053 3054 3054 3054 3055 3055 3055 3056 3056 3056 3057 3057 3058 3058 3059 3059 3060 3060 3061 3061 3062 3062 3063 3063 3063 3063 3063 3063 3063 3064 3064 3064 3064 3064 3064 3064 3064 3063 3063 3063 3063 3062 3062 3061
3045 3046 3047 3047 3048 3048 3048 3049 3049 3049 3050 3050 3050 3051 3051 3051 3051 3051 3051 3051 3052 3052 3052 3052 3052 3053 3053 3053 3053 3054 3054 3054 3055 3055 3056 3057 3057 3058 3058 3059 3059 3060 3060 3061 3061 3062 3062 3062 3063 3063 3063 3063 3063 3063 3063 3063 3063 3063 3063 3063 3063 3063 3063 3062 3062 3061 3061 3060 3060
3044 3045 3045 3046 3046 3047 3047 3047 3048 3048 3048 3049 3049 3049 3049 3049 3050 3050 3050 3050 3050 3050 3051 3051 3051 3052 3052 3052 3053 3053 3054 3054 3055 3055 3056 3057 3057 3058 3058 3059 3059 3060 3060 3060 3061 3061 3062 3062 3062 3062 3063 3063 3063 3063 3063 3063 3063 3063 3063 3062 3062 3062 3061 3061 3061 3060 3060 3059 3059
3043 3043 3044 3044 3045 3045 3046 3046 3046 3047 3047 3047 3048 3048 3048 3048 3048 3048 3049 3049 3049 3049 3050 3050 3050 3051 3051 3052 3052 3053 3053 3054 3055 3055 3056 3057 3057 3058 3058 3059 3059 3059 3060 3060 3061 3061 3061 3062 3062 3062 3062 3062 3062 3062 3062 3062 3062 3062 3061 3061 3061 3061 3060 3060 3059 3059 3058 3058 3057
3041 3042 3043 3043 3043 3044 3044 3045 3045 3045 3046 3046 3046 3047 3047 3047 3047 3048 3048 3048 3048 3049 3049 3049 3050 3050 3051 3052 3052 3053 3053 3054 3055 3055 3056 3057 3057 3058 3058 3059 3059 3059 3060 3060 3060 3061 3061 3061 3061 3061 3061 3061 3061 3061 3061 3061 3061 3061 3060 3060 3060 3059 3059 3059 3058 3058 3057 3057 3056
3040 3041 3041 3042 3042 3043 3043 3043 3044 3044 3044 3045 3045 3045 3046 3046 3046 3047 3047 3047 3048 3048 3049 3049 3050 3050 3051 3052 3052 3053 3053 3054 3055 3056 3056 3057 3057 3058 3058 3059 3059 3059 3060 3060 3060 3060 3060 3061 3061 3061 3060 3060 3060 3060 3060 3060 3060 3059 3059 3059 3058 3058 3058 3058 3057 3057 3056 3056 3055